GFSSGP_850_spd_000.txt.gz
Wind_Speed
11 12 11 4 2 4 4 6 3 5 4 5 4 6 8 5 7 5 5 17 13 19 18 23 22 17 13 11 11 11 11 12 12 12 13 13 13 12 11 11 12 11 10 10 10 12 13 14 13
11 11 7 3 3 1 5 4 6 6 7 11 6 5 2 5 7 3 14 17 15 18 16 17 18 16 13 11 11 12 12 13 14 15 15 14 14 13 12 13 14 14 13 10 10 11 12 13 14
11 8 3 3 3 5 5 5 4 13 28 14 4 7 3 4 7 4 10 16 17 19 16 15 17 16 14 12 11 10 11 13 15 17 18 17 15 14 15 14 16 16 15 13 13 13 13 13 13
7 3 3 2 7 7 6 7 6 11 17 6 6 3 6 8 4 8 14 17 16 15 15 14 16 15 13 11 10 9 10 11 14 17 18 16 15 17 18 16 18 19 18 18 16 15 16 15 15
9 2 1 2 6 6 7 18 16 7 8 9 4 5 6 9 13 10 13 17 15 13 14 14 16 17 13 9 7 7 7 10 13 15 15 14 18 19 21 20 21 20 21 19 19 18 16 18 18
4 2 1 4 6 5 7 18 15 5 5 8 4 4 8 12 17 14 15 16 14 9 13 17 18 17 14 11 9 9 9 9 13 13 14 14 16 19 22 22 22 23 22 24 20 20 19 20 21
4 4 5 4 6 6 6 3 5 1 6 7 7 3 7 12 15 17 16 18 15 15 14 19 18 17 16 14 12 10 9 11 14 12 12 13 14 18 22 24 25 26 27 25 24 24 23 22 22
6 4 3 6 4 8 7 4 7 2 9 13 3 4 8 20 12 21 19 22 18 18 18 19 19 19 18 17 14 11 12 15 16 14 13 14 15 16 18 20 20 20 23 24 24 25 25 24 23
9 2 6 7 7 8 3 3 5 3 9 8 13 25 26 28 20 23 26 28 25 25 24 23 21 20 19 18 16 13 14 17 16 15 14 15 14 13 13 12 13 14 14 14 15 18 22 24 26
9 6 11 11 9 6 7 2 17 8 18 15 21 27 28 29 25 28 34 34 31 30 28 27 24 24 22 21 17 14 17 17 16 15 14 14 12 13 10 11 10 10 10 12 15 16 17 17 23
9 14 19 19 24 8 7 15 14 11 15 27 21 35 37 32 25 30 34 35 31 28 29 28 27 27 25 22 18 16 18 16 14 13 12 13 13 12 11 10 10 10 11 14 16 16 15 18 20
4 18 28 27 24 14 7 15 21 22 28 38 36 40 41 31 27 33 34 37 33 31 29 28 29 29 27 22 17 17 16 14 11 10 10 12 12 12 12 11 10 10 9 11 10 13 13 16 18
9 10 19 24 25 29 23 17 22 29 44 40 37 39 38 34 32 35 31 34 34 33 32 31 31 31 27 22 18 16 13 11 9 9 10 11 12 13 13 12 11 10 11 12 11 10 12 13 15
8 22 25 21 32 32 19 19 21 40 37 35 34 38 40 37 32 37 37 36 38 36 35 34 32 30 26 22 17 12 9 7 8 9 11 12 12 13 14 15 14 11 11 12 12 11 11 14 16
12 7 8 14 23 9 21 14 21 47 30 30 35 40 41 38 32 35 37 33 37 40 37 33 32 30 26 20 15 10 6 7 9 11 12 14 14 14 14 15 15 15 12 12 12 11 11 13 16
2 2 3 7 5 8 12 14 23 35 27 35 33 30 34 35 34 34 37 37 41 41 37 31 31 29 24 18 12 7 6 7 10 12 13 15 16 15 14 14 15 14 13 12 11 11 12 12 15
3 9 10 8 8 4 8 12 15 23 11 23 32 33 31 33 35 34 34 38 42 42 37 30 30 27 21 15 11 8 7 7 10 12 13 14 13 13 14 13 11 13 13 11 12 12 13 12 13
5 5 6 10 2 4 10 15 18 39 16 23 27 35 37 39 42 37 30 39 42 39 33 28 29 24 19 15 12 8 6 8 11 12 13 12 11 11 12 12 12 13 11 11 12 13 14 13 12
7 14 13 3 4 7 10 10 14 23 13 18 29 34 41 42 37 27 25 34 33 30 30 31 30 24 20 15 11 7 5 8 9 12 13 10 10 10 11 11 12 12 11 11 12 13 16 14 12
9 12 17 12 4 7 10 13 15 17 18 20 28 37 36 30 24 23 23 27 32 33 34 33 26 21 17 12 9 5 6 8 10 12 11 9 9 11 11 9 10 9 9 10 11 13 17 15 13
13 18 17 11 6 6 7 13 12 14 14 19 25 22 23 24 20 19 20 26 30 33 37 30 22 18 15 11 7 4 6 8 10 10 7 7 7 8 5 7 9 6 6 6 7 11 16 15 14
18 15 15 12 4 8 5 6 9 9 17 8 21 23 25 21 21 19 22 23 28 35 31 23 20 18 14 9 5 3 5 8 8 8 5 5 4 2 2 6 6 5 5 6 8 10 12 13 13
13 7 7 7 7 2 5 5 6 5 10 14 11 26 29 24 21 18 18 22 30 32 26 21 19 16 11 7 5 2 6 8 8 8 6 5 3 2 3 5 6 4 4 6 8 11 12 11 10
4 3 4 4 1 10 13 7 5 6 12 6 6 14 17 14 14 14 19 25 32 28 23 21 18 13 8 7 4 2 6 6 8 8 7 4 4 5 6 7 6 4 4 5 7 10 11 10 9
7 7 2 4 1 6 6 6 15 11 10 9 12 21 12 10 16 20 26 35 32 28 23 20 17 10 8 7 5 1 6 6 9 10 6 2 3 9 9 8 7 5 6 6 5 7 9 8 8
15 9 6 6 3 5 5 8 9 13 15 21 23 18 10 17 20 24 31 36 31 26 22 19 14 10 8 9 5 1 4 6 7 9 5 3 6 9 10 9 5 5 5 4 3 4 8 6 5
11 10 12 1 2 1 4 8 8 6 9 5 1 6 15 20 24 27 34 33 29 23 20 17 12 11 8 8 5 2 4 6 6 10 7 4 7 9 10 8 5 3 4 2 2 3 4 5 6
9 11 7 6 6 3 5 5 6 2 6 3 6 10 19 21 24 27 34 32 25 20 18 16 12 10 9 8 5 3 2 6 6 7 7 4 7 10 9 7 6 2 3 3 3 3 3 5 7
5 7 3 8 5 5 1 6 8 9 9 9 9 17 24 27 27 30 34 29 22 20 19 16 13 12 10 8 7 3 1 5 4 4 2 3 6 10 9 7 6 3 4 4 5 6 6 6 6
22 16 8 7 4 4 3 6 3 9 7 7 8 15 19 23 27 30 33 29 24 22 21 16 14 12 9 8 6 5 1 3 3 3 3 3 8 9 8 5 6 7 6 7 9 9 9 7 5

GFSSGP_850_spd_003.txt.gz
Wind_Speed
14 15 15 7 2 2 3 4 4 7 2 2 1 5 6 3 5 9 4 9 13 15 18 19 17 15 13 13 11 11 9 9 10 11 11 11 11 12 12 11 11 11 11 11 11 11 12 12 10
17 16 9 3 3 3 3 5 7 2 9 17 9 10 7 9 11 8 8 13 14 17 16 18 17 16 15 13 11 10 10 10 11 12 13 13 12 12 13 12 12 12 11 11 10 10 11 11 11
17 12 3 2 3 6 3 7 3 9 14 5 4 5 3 4 7 6 9 14 17 19 16 17 18 17 18 14 12 9 8 8 10 12 14 15 14 12 12 14 14 13 14 13 11 12 12 12 12
10 4 3 4 12 8 6 4 8 13 2 3 3 7 7 12 8 11 10 13 17 17 17 16 19 17 17 16 14 9 7 6 8 12 14 14 14 15 13 15 17 17 17 15 15 17 15 16 14
10 3 4 5 11 6 10 19 11 9 8 4 2 3 7 19 16 15 11 17 18 17 17 16 17 20 19 17 15 11 7 5 7 10 12 13 12 15 18 19 20 20 20 19 19 19 17 19 19
4 2 4 10 13 10 10 15 9 9 7 4 2 4 9 16 16 16 15 18 18 15 17 17 18 19 19 17 16 13 11 10 8 10 11 12 13 17 18 20 21 22 21 20 21 21 21 20 21
5 4 6 9 15 12 9 10 7 7 5 3 6 4 6 10 16 14 16 19 20 19 17 17 19 20 19 19 17 15 12 11 10 12 11 12 14 17 18 21 23 25 25 24 23 25 25 24 23
3 3 5 7 9 10 2 3 3 2 6 8 5 4 8 21 18 18 18 22 25 22 20 18 20 21 23 23 21 18 14 12 12 13 12 13 15 17 20 19 20 21 22 24 28 29 27 25 24
7 7 13 16 12 10 2 4 3 3 11 8 8 18 21 24 23 22 20 28 29 27 25 22 21 24 25 24 22 20 15 14 13 14 14 15 16 16 16 17 15 14 16 15 15 16 19 22 23
10 12 20 16 15 13 12 6 12 10 21 25 23 21 20 23 26 26 26 31 35 34 31 26 25 26 26 27 25 22 17 15 13 15 16 16 16 15 15 13 12 13 13 11 13 15 17 18 15
12 20 26 25 24 12 21 21 18 20 24 29 24 28 30 25 31 30 27 29 38 39 33 30 29 28 29 30 26 22 18 15 15 16 16 15 15 16 14 12 11 12 12 14 15 17 17 15 14
15 28 31 32 22 16 22 24 22 28 37 31 33 29 31 33 33 33 28 30 39 42 38 32 29 30 32 31 26 22 18 16 16 15 14 14 15 16 15 13 12 11 11 11 12 13 14 16 15
23 23 26 30 28 26 25 25 22 36 42 33 31 30 32 35 34 34 32 31 38 44 44 36 31 30 33 32 27 22 19 17 15 14 13 14 14 14 15 15 15 14 13 13 13 13 12 13 14
14 29 29 24 20 28 23 31 24 35 33 28 27 31 32 33 34 34 32 31 35 40 44 42 34 34 35 32 27 22 18 16 13 12 12 13 15 15 16 17 18 17 16 13 13 13 12 12 14
18 15 13 16 17 14 11 26 20 41 28 28 33 28 32 32 27 31 29 30 31 37 43 47 35 34 34 32 27 21 18 15 12 11 13 15 17 18 18 19 19 19 20 15 14 14 12 12 13
10 11 18 12 20 14 15 32 20 25 18 22 24 22 27 36 32 26 28 28 30 36 44 44 39 33 32 30 26 20 17 13 10 11 14 16 18 18 18 19 19 17 18 17 15 14 13 13 13
11 14 15 13 11 5 16 21 17 15 11 20 28 27 28 31 37 33 28 25 24 29 41 37 36 31 29 27 23 19 15 12 11 12 13 15 16 16 16 17 16 16 17 16 15 14 13 13 12
15 15 14 16 11 17 23 26 19 24 18 24 26 27 28 33 38 32 30 19 17 22 31 29 31 27 27 26 21 17 13 11 12 13 13 15 15 14 14 14 13 15 15 14 14 14 13 14 13
18 20 25 22 15 15 19 19 14 19 23 26 28 30 34 37 32 29 19 13 14 22 25 27 29 28 31 26 22 16 12 10 11 12 14 14 13 12 12 12 12 13 13 12 13 14 15 15 13
22 23 21 14 12 10 17 20 16 17 24 29 26 29 31 27 29 20 17 16 19 19 23 26 29 33 27 21 16 12 10 10 9 11 13 12 11 11 11 11 9 10 11 12 13 14 15 16 14
25 25 23 19 15 14 17 22 19 20 13 21 24 28 31 30 24 13 14 15 18 20 23 29 33 28 22 19 15 10 8 6 6 8 10 8 8 8 8 6 8 7 7 8 10 11 13 15 16
25 24 20 18 11 14 3 14 17 19 22 22 28 24 25 25 20 14 13 14 15 20 25 31 29 23 20 17 12 8 5 3 5 8 8 7 5 4 2 6 7 5 4 4 4 7 12 14 13
16 11 15 16 17 16 17 11 12 14 22 24 20 26 21 14 13 15 13 11 13 19 30 29 25 21 18 14 11 6 2 3 6 8 7 6 3 2 3 6 5 3 2 3 6 9 12 11 11
12 7 8 6 7 12 15 11 14 14 20 18 14 16 7 13 11 10 10 12 17 28 30 27 23 20 17 13 10 5 1 2 7 8 7 3 5 5 6 7 7 5 3 4 6 9 10 9 8
20 12 5 6 8 10 16 13 18 14 19 18 19 13 8 10 4 11 18 23 31 35 30 25 22 19 15 13 10 4 1 3 7 8 4 2 6 9 9 8 8 7 4 4 5 6 7 7 6
24 20 8 7 5 10 5 9 7 16 20 29 23 16 7 6 10 16 20 30 35 33 28 24 22 17 15 13 9 5 3 4 5 6 4 7 11 11 10 8 6 5 4 4 3 5 5 4 4
17 18 15 6 2 7 3 6 11 18 14 11 11 8 7 11 14 19 25 32 34 30 26 23 20 15 14 13 9 5 4 3 4 6 7 9 10 11 9 8 5 4 3 2 2 4 4 4 3
19 17 10 9 8 8 8 8 8 14 8 8 8 8 11 15 17 22 27 33 31 27 24 22 16 15 15 11 9 6 2 2 3 4 5 7 9 10 8 7 6 3 4 2 3 3 3 5 7
11 16 7 10 7 6 4 5 11 16 12 8 3 9 12 16 19 23 27 31 28 25 24 21 17 15 14 11 10 6 1 1 1 1 3 6 9 9 7 6 5 3 4 4 4 3 4 7 9
21 20 20 9 9 10 3 6 2 8 7 6 2 10 16 16 19 23 26 31 28 26 25 19 17 15 13 11 9 8 3 0 0 1 4 6 9 9 7 5 5 6 6 8 8 8 9 9 8

GFSSGP_850_spd_006.txt.gz
Wind_Speed
13 16 13 5 6 6 10 4 6 6 5 4 6 8 7 10 11 7 10 6 9 13 18 20 16 13 12 12 12 10 8 6 6 8 9 9 10 11 12 11 11 12 12 11 11 11 11 9 7
17 18 7 4 7 9 9 9 8 1 6 9 11 13 13 14 7 9 8 9 12 14 18 19 18 16 14 12 11 10 9 7 6 8 9 10 10 11 11 12 12 12 12 12 12 11 10 10 9
18 11 9 5 9 11 5 8 4 3 5 2 4 4 6 4 3 4 7 8 15 17 17 18 19 17 17 13 11 10 9 7 6 8 10 11 11 11 12 12 12 13 12 12 12 11 11 12 11
12 6 8 9 13 11 10 4 3 5 3 1 3 7 5 7 4 4 10 13 15 17 17 19 20 19 19 16 12 10 7 5 5 7 10 12 11 12 12 13 15 15 16 16 15 14 15 14 13
10 8 11 13 17 13 9 15 14 10 6 6 3 4 6 6 8 14 12 12 17 19 19 20 22 20 20 18 15 13 10 7 5 7 10 12 11 11 13 16 18 19 20 20 19 17 18 17 18
12 9 11 14 18 11 11 14 15 13 11 8 8 6 10 4 9 9 7 12 16 19 21 21 22 20 20 20 18 17 15 12 10 9 10 12 11 13 17 19 20 20 21 21 21 21 20 19 19
16 10 16 17 17 14 11 8 13 13 8 10 5 11 8 3 12 9 9 10 17 18 21 21 22 22 22 22 21 21 19 15 14 13 11 12 12 16 19 20 21 23 24 25 24 23 22 22 21
17 11 19 16 16 16 5 6 5 8 10 5 7 7 6 12 13 11 10 11 17 20 21 22 23 24 25 25 25 23 20 18 16 14 13 14 14 16 18 19 19 19 20 22 23 24 26 26 24
16 11 15 20 20 17 14 11 3 5 13 16 13 17 17 17 14 13 13 14 17 23 25 24 23 23 25 22 22 24 22 21 19 17 17 14 12 12 13 15 18 20 16 16 16 16 18 20 22
20 15 24 21 22 19 25 16 17 12 18 24 24 23 15 17 18 18 18 18 18 26 27 26 25 24 23 21 20 23 23 22 18 15 13 13 12 13 14 16 17 16 16 15 12 12 13 12 12
24 27 24 27 31 28 24 26 27 22 19 27 24 28 25 24 22 21 22 20 21 23 27 29 28 27 25 23 22 18 18 16 15 15 14 12 13 12 11 11 10 11 14 10 11 11 9 11 13
29 35 31 32 35 29 22 31 28 28 28 31 28 29 30 27 25 22 23 22 20 19 27 29 29 33 31 23 22 19 18 16 14 13 14 14 12 13 13 12 11 12 11 11 10 10 10 11 13
34 28 32 30 30 32 30 31 30 35 30 35 29 27 26 25 27 25 23 23 21 21 23 29 30 34 33 32 22 21 20 18 14 13 13 14 13 14 14 14 13 14 13 13 12 12 11 10 10
32 32 37 34 30 28 25 30 34 37 25 37 30 31 27 26 25 23 22 22 20 22 22 27 31 35 35 34 30 29 25 17 17 12 12 15 15 14 15 17 18 16 17 15 14 12 12 11 11
30 27 28 24 28 27 25 31 30 37 29 33 29 26 24 23 22 22 21 23 21 20 18 28 30 34 37 34 33 30 23 21 14 12 15 16 17 15 18 20 20 19 19 19 17 14 13 12 11
22 27 27 25 21 20 19 36 27 25 28 25 22 23 23 24 24 24 22 21 24 23 20 23 27 29 37 36 33 28 20 17 13 12 12 13 15 17 20 21 21 20 19 19 21 15 13 12 12
25 26 31 30 27 26 26 39 29 34 21 20 21 25 25 26 27 29 26 24 22 24 23 24 26 27 34 33 31 27 25 18 13 12 12 12 14 17 19 19 19 19 18 19 18 15 14 12 13
26 26 27 30 23 22 26 31 27 31 31 27 29 27 29 27 30 31 25 22 22 24 24 23 21 25 29 29 30 21 17 14 12 11 11 13 14 16 18 18 17 16 17 17 15 14 14 13 12
25 25 30 24 24 24 24 29 29 32 24 28 32 28 30 29 31 26 23 18 18 18 22 20 21 26 30 30 25 21 17 12 10 10 12 13 14 15 16 15 15 15 16 16 16 15 14 14 12
27 29 29 24 24 20 20 26 26 24 26 32 35 31 32 27 26 20 16 16 17 18 18 18 21 26 30 25 22 16 13 10 9 9 11 12 12 13 14 14 14 14 12 13 14 14 13 13 14
29 29 26 25 22 19 22 25 27 27 35 37 32 29 26 26 29 21 13 11 13 15 16 17 21 26 26 23 20 15 10 8 5 8 8 9 9 10 10 10 8 9 11 11 13 14 12 11 13
30 25 23 22 19 19 18 21 23 21 25 22 29 30 31 29 22 17 12 10 11 12 15 20 24 27 26 21 15 13 8 7 7 7 7 6 7 6 5 6 6 6 7 8 6 6 8 12 11
26 15 20 20 19 20 23 14 22 23 24 23 22 29 29 25 15 12 12 12 13 16 21 23 27 27 23 19 13 9 7 6 5 4 5 7 6 4 3 5 5 5 4 4 3 5 7 8 8
22 14 18 15 14 16 21 20 21 19 22 21 14 13 11 11 7 9 12 15 17 21 24 27 27 22 19 16 12 10 7 6 4 4 5 6 7 5 5 6 5 5 4 3 4 5 6 6 6
24 21 10 11 12 14 15 12 20 17 20 20 15 5 6 4 10 15 18 19 23 27 27 25 23 20 17 14 12 9 6 5 2 2 3 5 5 7 7 7 6 3 4 4 5 5 7 6 5
29 25 12 15 12 13 7 9 10 11 16 15 14 15 5 5 12 17 21 25 27 27 26 23 21 19 16 14 12 9 6 3 2 2 4 4 7 8 8 7 5 4 3 3 3 6 7 7 6
31 25 23 14 3 6 7 9 14 20 18 15 9 6 6 11 16 21 23 25 27 26 24 22 20 17 15 14 12 9 6 6 4 3 7 7 9 8 7 5 3 2 2 2 3 6 8 7 5
26 24 20 13 14 15 7 10 10 13 10 7 10 7 12 17 19 23 25 26 25 24 22 20 18 16 15 14 12 8 6 6 3 4 7 9 9 9 7 4 2 1 1 2 5 4 5 5 5
17 22 19 15 10 8 4 4 11 14 11 3 5 10 18 22 23 24 26 25 24 22 21 20 16 16 15 13 11 9 6 6 5 5 7 8 9 9 6 5 3 2 2 3 2 4 4 5 7
26 18 24 13 16 13 7 7 5 5 6 4 4 13 20 23 25 26 26 26 24 22 21 18 16 15 15 12 10 7 5 5 4 6 7 8 8 8 6 5 4 3 2 1 2 4 8 9 7

GFSSGP_850_spd_009.txt.gz
Wind_Speed
7 10 7 7 7 7 14 13 11 4 9 1 4 7 13 14 9 5 4 3 5 15 11 16 15 12 11 10 10 9 7 5 4 4 6 8 9 10 10 10 11 11 10 9 10 11 9 6 7
11 10 9 11 8 13 13 12 10 5 8 7 9 10 12 9 8 6 5 3 7 16 12 18 17 15 13 12 11 10 8 5 3 4 5 6 8 9 11 10 10 11 11 10 9 9 10 10 7
15 12 12 7 13 14 8 5 7 6 3 6 6 1 9 8 4 6 4 1 11 16 14 18 18 17 15 13 12 9 7 6 4 4 6 7 8 9 11 11 11 11 11 12 10 10 9 11 11
14 11 13 11 18 15 13 5 6 8 8 5 7 11 4 2 3 2 4 4 11 15 16 17 20 18 17 15 13 11 9 7 5 4 6 8 8 9 11 12 12 12 13 14 14 13 13 14 13
15 15 13 15 19 20 9 10 13 11 9 7 4 11 8 12 6 3 2 5 10 12 17 18 20 22 19 18 16 13 11 8 7 6 7 9 10 11 10 12 14 15 16 17 18 18 16 16 17
16 19 14 15 20 18 10 8 13 16 15 12 6 13 10 4 5 5 4 5 9 14 17 19 21 22 23 22 20 17 14 11 11 10 11 11 13 13 13 15 16 18 19 19 20 20 18 19 19
20 13 17 20 19 18 5 6 12 15 14 13 10 5 13 2 5 8 9 9 11 15 17 18 20 25 26 25 24 21 18 16 15 15 14 13 14 14 14 18 19 19 20 22 23 24 23 20 20
24 14 23 21 18 21 17 3 14 10 14 5 3 9 14 16 12 13 16 14 15 15 18 18 19 23 28 28 28 27 23 21 19 18 18 17 17 16 14 17 17 17 17 18 19 21 23 24 25
20 16 18 24 22 19 24 15 19 5 12 18 18 18 19 21 16 15 16 18 18 16 17 19 21 20 24 24 27 29 27 24 23 22 20 19 17 11 16 14 19 21 20 18 16 15 17 19 22
25 18 25 23 20 19 24 25 23 20 15 20 21 24 23 16 18 20 22 21 22 19 20 22 24 22 21 21 22 24 29 27 25 23 17 15 11 11 14 16 22 19 17 16 14 12 11 13 10
30 25 25 27 30 32 29 32 33 24 21 28 22 23 24 24 23 25 23 24 22 22 18 22 25 30 25 22 22 17 18 18 18 17 16 13 13 12 13 12 13 16 14 12 12 10 8 8 11
29 37 35 35 38 37 32 41 34 31 27 30 26 26 26 27 26 23 24 24 23 21 20 20 25 30 33 25 24 21 18 18 17 16 17 15 12 12 12 12 13 14 13 11 10 10 15 15 14
32 32 39 41 42 44 41 33 37 33 31 34 34 29 28 29 29 26 24 25 24 24 22 19 28 34 34 34 25 25 21 20 18 17 15 15 13 13 13 15 17 16 14 12 12 13 15 14 13
40 40 40 43 43 41 37 37 36 35 35 38 37 31 34 33 28 25 24 23 23 24 21 19 27 34 38 32 30 31 27 21 20 17 15 16 14 13 13 16 19 17 16 15 15 15 13 13 12
43 36 35 36 38 34 30 32 36 40 37 38 39 35 35 31 26 24 23 23 22 23 21 21 27 35 39 34 36 31 24 25 19 16 16 16 14 13 14 15 24 22 20 18 20 19 16 13 13
32 31 29 34 34 36 31 35 31 38 38 38 35 30 36 26 28 26 26 23 22 22 20 20 24 34 41 33 33 30 24 23 20 15 14 14 14 14 16 18 22 21 20 20 19 18 17 13 13
26 28 38 32 30 28 30 37 31 36 35 36 40 42 26 30 31 30 29 26 26 27 26 24 27 33 38 32 29 28 25 21 17 15 14 14 14 13 17 19 20 19 18 19 19 20 18 14 15
31 32 30 33 30 28 32 35 33 38 27 33 37 39 35 31 38 35 31 27 25 24 23 25 27 33 33 26 29 23 22 19 16 14 13 14 13 14 17 18 21 18 17 18 19 17 15 15 14
30 26 31 32 28 27 29 30 31 20 29 33 37 41 34 33 38 34 31 26 22 20 21 22 33 29 30 25 25 24 22 17 15 13 13 13 12 13 16 19 17 17 17 17 15 15 15 15 14
31 31 32 29 27 21 22 23 26 25 25 32 36 36 35 36 38 36 29 20 15 15 19 22 24 29 31 25 23 21 18 14 11 10 11 11 11 13 16 17 16 16 14 12 12 14 17 17 16
32 31 29 29 24 20 19 27 28 25 31 35 39 41 41 39 36 31 25 18 12 16 18 19 21 25 25 22 21 19 15 12 10 10 10 9 9 11 13 14 13 11 9 13 13 14 15 15 16
31 29 27 23 20 18 20 22 23 21 23 25 28 31 30 29 28 27 24 11 13 15 16 18 21 24 24 26 20 19 13 9 9 8 7 9 9 10 11 13 9 6 8 10 9 10 12 14 15
35 25 24 23 21 22 23 16 18 21 22 25 24 29 29 28 28 27 19 14 14 15 18 21 23 25 25 22 17 15 11 9 5 6 7 7 9 11 6 7 4 5 7 5 5 3 7 11 12
27 27 24 18 17 19 21 19 24 19 20 18 13 16 22 23 25 15 13 16 17 18 21 23 25 23 22 19 16 11 11 7 6 4 5 10 9 6 7 4 4 5 3 3 3 4 3 5 8
29 22 15 16 17 20 18 17 21 18 17 18 16 19 3 4 10 15 17 19 21 22 24 25 24 23 20 17 14 11 8 7 4 3 4 5 6 6 5 6 5 4 3 3 4 4 4 4 5
30 29 15 26 11 16 23 16 16 14 9 11 16 13 13 8 12 16 19 21 23 25 25 24 23 21 18 15 13 10 7 4 2 3 3 4 2 6 6 5 3 2 1 2 4 3 4 4 5
38 28 32 21 22 11 14 10 14 17 14 13 13 11 10 12 16 19 21 24 26 26 24 23 22 19 17 15 12 9 7 6 7 5 6 3 7 4 6 4 2 2 1 2 3 2 3 4 3
35 27 25 21 23 14 14 9 10 5 9 7 13 11 15 17 20 22 24 26 25 24 23 21 19 18 16 14 11 8 7 6 5 4 6 7 7 7 6 3 1 1 1 3 5 3 3 4 4
28 25 29 21 17 14 12 10 3 6 10 7 13 13 18 22 23 26 26 25 25 23 22 20 19 17 16 13 10 9 7 7 5 6 7 7 7 6 4 3 2 2 1 2 3 4 4 5 8
31 28 32 15 22 17 9 6 6 5 3 4 3 15 20 23 25 26 27 26 25 22 21 19 17 16 15 12 10 8 7 6 5 7 8 8 7 6 4 3 3 2 3 3 4 3 9 7 8

GFSSGP_850_spd_012.txt.gz
Wind_Speed
3 6 7 3 5 7 14 19 14 4 6 6 3 2 10 10 8 4 14 11 8 5 5 17 16 13 12 12 11 9 6 4 2 2 4 5 6 7 7 7 8 7 6 6 6 6 4 5 6
6 8 4 9 7 12 14 14 14 19 19 8 4 5 5 8 14 20 12 6 7 5 8 18 18 15 15 14 12 10 7 5 2 0 3 5 6 7 8 8 7 8 9 8 7 7 7 5 5
12 11 11 5 10 14 8 4 16 11 17 3 4 5 3 3 12 6 6 3 10 9 10 19 20 17 16 15 14 12 9 6 3 1 2 4 6 7 9 10 9 7 8 10 10 8 8 8 9
9 9 12 8 18 20 21 8 16 19 14 3 5 4 7 13 5 5 2 3 13 15 13 21 21 17 17 16 14 13 11 8 5 3 2 4 6 7 8 10 10 9 9 10 11 13 12 11 12
10 12 10 14 19 19 19 4 18 11 11 12 3 3 3 9 11 7 3 3 8 10 9 14 21 18 18 18 16 14 13 10 8 6 4 5 7 8 8 9 11 12 12 13 14 15 16 15 15
11 13 12 14 21 22 19 25 9 12 15 17 14 4 9 10 12 6 3 3 6 16 15 13 15 21 20 20 18 16 14 12 10 9 9 9 10 11 12 11 12 13 15 16 17 17 18 16 18
19 10 16 20 21 23 18 11 10 12 15 14 12 6 4 8 4 2 7 9 9 13 20 17 17 21 26 24 22 20 18 16 14 13 14 13 14 14 14 14 14 16 16 16 18 20 21 21 20
24 12 19 21 19 24 21 23 6 11 16 11 4 3 6 19 19 8 10 11 13 11 23 23 17 19 27 28 28 25 23 20 19 18 19 18 18 16 15 13 13 13 15 17 17 17 18 20 20
23 15 16 23 23 21 25 19 23 14 20 12 22 17 18 16 22 12 13 14 14 12 17 22 22 20 20 30 31 29 27 26 25 23 23 21 20 18 13 14 18 17 20 20 16 14 13 15 17
23 17 26 23 20 21 24 24 22 21 18 22 19 29 22 17 19 21 17 20 19 19 14 24 26 24 25 24 31 32 32 31 29 27 25 23 20 14 7 16 18 16 15 13 14 8 9 10 11
29 26 25 29 32 33 32 30 26 27 24 24 25 23 30 19 19 22 22 23 22 20 17 20 29 28 29 27 25 28 27 30 31 30 27 24 17 15 10 13 15 16 16 13 12 10 11 5 2
28 36 35 36 35 34 29 35 32 33 34 35 34 29 29 20 17 26 28 24 22 21 23 19 28 29 31 31 28 32 30 28 24 27 24 22 19 17 12 11 11 14 15 13 9 11 11 7 7
30 29 38 40 40 38 39 33 32 36 44 35 35 34 29 30 25 28 33 28 21 22 21 23 22 28 31 35 30 32 31 25 21 18 20 21 19 13 11 13 16 15 16 12 14 14 16 17 18
39 37 38 42 41 40 33 32 36 39 40 40 36 32 35 35 35 29 34 28 23 17 20 18 22 28 29 37 37 34 31 26 25 24 24 22 19 14 16 17 19 21 20 17 16 16 18 21 17
41 33 32 32 38 34 37 32 30 38 38 34 38 39 36 35 41 33 33 26 20 19 22 20 22 26 33 37 38 35 37 30 30 28 23 22 19 16 17 18 18 21 20 21 21 22 24 21 16
32 33 29 31 30 39 31 31 31 39 40 32 35 36 34 40 32 31 26 19 18 20 25 23 23 25 33 39 38 38 29 35 24 27 25 25 23 19 15 16 18 21 22 20 21 22 22 21 18
26 23 33 38 29 33 33 30 33 37 38 34 36 35 31 34 36 37 24 25 25 28 26 28 26 26 34 40 36 31 27 28 29 19 18 19 16 13 11 16 17 22 22 20 19 19 21 21 20
23 30 35 30 27 28 29 28 28 35 36 34 35 27 28 30 35 29 29 23 28 33 27 28 30 28 34 36 33 26 27 25 23 22 18 16 13 12 14 18 19 23 21 17 17 19 19 18 17
26 30 33 31 28 29 25 27 27 23 26 24 26 34 28 33 31 35 30 26 28 31 27 26 27 29 33 35 32 27 28 24 22 18 18 17 17 15 16 18 20 22 17 16 18 18 15 15 15
33 32 30 27 26 24 22 23 21 21 21 25 28 24 25 29 32 32 29 24 31 28 22 23 24 30 34 33 27 25 23 22 18 19 17 17 15 11 13 18 20 19 16 14 14 13 12 14 14
31 30 26 29 25 26 22 24 23 23 25 30 32 30 35 38 39 40 36 33 27 21 23 25 25 30 31 27 22 22 22 16 17 16 16 15 13 9 12 16 16 17 13 9 11 11 13 15 15
29 28 28 26 21 18 18 18 21 17 21 19 21 24 29 28 28 34 34 31 19 17 18 19 21 25 27 22 23 22 24 17 15 12 14 10 8 13 15 13 16 10 5 9 10 11 12 14 16
34 25 25 25 23 21 24 15 18 16 18 19 20 29 32 34 29 28 24 19 18 18 13 16 21 21 25 23 24 22 18 15 14 12 10 11 14 14 8 9 6 4 6 7 5 6 8 11 15
25 24 27 24 18 17 23 20 17 18 19 22 19 8 14 16 21 16 16 22 22 17 18 22 20 24 27 22 22 21 14 14 11 10 6 8 10 11 6 4 2 6 6 2 3 2 3 4 7
31 21 15 16 15 21 18 18 17 18 19 20 14 10 10 15 18 25 27 25 23 23 22 22 25 26 28 22 20 15 20 16 12 8 7 7 5 5 7 5 6 7 4 3 2 3 5 3 4
30 25 16 25 14 19 22 21 21 19 23 22 5 11 6 11 15 21 21 24 25 23 24 25 24 27 23 19 17 12 10 8 7 4 4 4 2 4 7 6 5 4 1 3 6 7 6 4 3
27 27 26 23 20 14 16 16 25 19 13 14 10 13 17 15 16 19 20 22 24 25 26 25 25 24 21 18 15 12 13 10 10 6 6 3 7 3 5 4 1 2 1 3 6 4 4 5 4
28 23 24 19 22 18 19 16 4 11 8 4 10 10 23 20 20 22 22 25 26 26 26 24 23 22 20 18 14 10 9 5 7 6 7 6 8 7 5 1 2 1 1 5 9 5 4 5 4
24 25 25 17 16 14 13 9 3 2 3 7 12 19 25 24 23 24 26 27 27 26 25 24 22 21 18 16 13 11 7 7 4 6 7 7 8 6 6 2 1 2 3 6 7 4 4 4 4
29 25 24 15 23 18 14 11 11 5 6 5 13 25 25 27 26 26 28 27 26 25 23 23 20 18 17 15 13 8 9 6 7 8 10 6 7 7 4 2 1 3 4 9 8 6 4 3 3

GFSSGP_850_spd_015.txt.gz
Wind_Speed
5 4 6 3 3 1 4 8 7 5 8 15 14 9 4 12 6 5 20 13 11 5 12 21 20 18 15 14 13 12 11 8 6 5 5 5 5 5 5 5 6 5 5 4 4 4 4 4 3
6 8 1 3 2 2 5 9 4 1 2 16 22 6 7 3 26 20 17 10 2 1 7 19 21 19 16 15 14 13 12 9 7 5 4 3 4 4 5 5 5 6 6 6 5 5 4 3 3
11 8 5 4 4 5 5 4 1 8 11 7 7 4 1 9 20 16 14 11 2 4 7 20 21 18 16 16 15 14 13 11 8 5 3 2 3 4 6 6 5 4 5 6 6 7 6 5 6
8 4 7 2 9 12 10 12 11 4 8 17 30 6 8 10 9 12 10 6 3 5 7 17 21 19 17 16 15 15 14 12 9 6 3 1 3 5 6 6 7 6 6 7 9 9 10 9 10
5 3 3 4 9 12 16 23 22 9 12 17 41 9 12 16 14 10 4 3 12 11 9 14 24 22 19 19 17 16 15 13 11 8 4 1 3 5 7 7 7 8 9 8 10 12 14 14 13
4 4 2 6 12 17 17 24 10 14 14 22 4 10 9 16 9 3 2 10 14 17 16 11 24 25 22 21 20 19 17 15 13 11 7 6 6 7 8 10 9 9 10 11 13 15 16 16 15
2 3 5 7 14 20 19 22 8 6 8 5 6 5 19 16 6 12 4 5 18 19 17 19 19 24 25 23 23 22 21 19 17 15 12 10 10 10 10 10 9 9 8 9 12 14 16 17 18
6 2 5 6 13 20 22 22 24 11 5 9 10 4 2 12 7 13 8 4 10 24 24 23 24 22 27 28 27 26 25 23 22 20 16 15 14 12 12 11 9 9 10 12 14 13 14 14 15
13 4 5 12 13 16 26 18 30 26 5 11 17 13 24 24 24 8 8 10 8 19 22 28 25 25 24 29 29 29 29 28 27 25 22 20 18 15 14 12 10 10 9 11 10 11 8 10 12
15 6 11 17 18 15 21 17 29 24 11 13 24 22 34 29 21 14 14 10 15 19 23 27 30 28 27 27 27 31 31 33 33 31 27 24 21 18 15 13 9 7 7 9 8 8 6 6 8
21 20 15 22 26 30 26 30 30 23 9 17 20 14 23 23 32 15 16 14 14 22 22 20 30 31 32 29 27 29 32 36 36 35 32 29 25 21 17 12 10 9 10 10 10 10 7 7 2
17 27 29 24 31 34 25 34 27 28 23 31 31 37 31 24 27 17 17 18 19 26 26 26 26 31 36 32 30 29 28 33 39 39 35 34 29 24 18 12 11 13 12 10 12 12 11 10 9
25 22 28 31 33 37 39 31 29 34 37 37 34 33 37 31 31 26 24 23 23 29 27 22 21 29 36 38 33 31 29 28 32 30 31 34 30 23 15 14 11 14 15 15 14 12 15 15 12
24 24 29 30 34 36 28 29 31 33 35 36 38 38 42 36 31 33 32 31 31 31 28 20 20 25 32 39 36 32 31 29 27 27 25 25 22 16 14 13 13 17 20 20 20 21 18 20 21
30 22 20 25 29 22 26 27 31 33 32 35 30 34 38 36 38 38 34 36 39 36 23 20 18 20 30 38 36 35 33 29 28 28 24 21 18 16 14 16 20 21 21 19 17 19 25 24 22
17 18 21 22 22 28 20 42 15 32 38 35 43 43 40 39 35 37 33 31 26 18 16 19 20 22 25 35 39 37 32 28 27 25 24 22 19 18 17 17 19 18 20 19 19 19 23 26 25
9 18 22 26 22 16 11 32 15 36 38 33 33 41 45 45 43 38 36 30 26 26 24 18 22 23 25 30 41 39 32 32 26 27 28 24 21 19 16 16 13 15 20 20 21 20 20 21 22
13 18 22 27 9 12 22 32 28 43 41 38 39 39 39 39 43 39 32 27 29 30 20 19 22 25 27 28 37 43 39 32 30 23 22 19 16 17 17 11 12 20 22 21 22 17 17 18 16
15 19 21 16 16 17 25 26 26 29 31 24 28 32 19 20 32 30 28 23 22 30 26 24 26 28 30 31 36 37 42 32 28 23 14 16 17 14 11 13 18 23 22 21 19 17 16 17 15
22 25 24 14 10 14 16 14 19 17 13 18 21 24 23 27 30 31 30 33 31 24 21 20 25 29 31 30 35 35 34 30 23 21 21 18 16 17 18 15 17 22 21 17 14 15 15 14 13
25 24 18 18 14 22 18 18 19 19 19 22 28 31 33 41 42 43 39 31 32 28 22 19 26 28 28 31 31 25 22 25 20 22 20 20 19 18 15 18 19 18 17 13 11 11 12 10 11
23 14 20 20 15 14 11 17 19 11 16 19 22 30 33 42 43 42 40 37 37 19 18 21 25 24 28 29 25 23 25 24 19 20 21 20 17 16 15 16 17 14 9 7 7 8 9 13 13
24 11 19 16 15 16 18 9 7 9 9 10 13 27 35 38 44 42 33 24 23 22 23 20 19 24 26 22 19 23 22 21 22 19 15 16 16 13 14 13 7 4 4 5 6 6 6 9 13
17 16 19 16 11 12 17 15 20 12 6 13 10 25 32 10 10 15 15 16 24 23 18 15 18 24 23 22 22 23 26 19 17 18 14 11 9 11 12 6 3 3 4 4 1 2 2 1 4
15 13 7 9 9 16 13 12 17 11 13 18 12 17 5 8 14 20 26 29 26 21 17 16 22 25 24 23 24 23 20 20 20 17 13 9 8 6 5 7 5 5 5 2 2 3 2 3 2
13 13 8 13 8 17 13 8 9 22 15 21 27 14 23 25 25 27 28 25 23 20 20 24 28 28 26 24 23 20 18 17 13 9 10 9 6 1 7 7 6 6 2 3 5 6 7 4 4
19 18 18 15 11 8 5 10 22 26 19 11 18 16 28 31 29 26 24 23 22 21 24 27 29 27 24 22 21 14 15 12 11 7 8 6 4 4 5 5 2 3 3 3 3 5 6 6 3
18 8 6 11 12 12 6 13 9 10 18 10 9 13 29 33 32 30 28 25 21 26 24 24 28 25 22 19 14 14 10 10 11 8 9 4 7 6 6 6 5 4 1 5 8 7 4 4 4
9 16 11 6 9 9 7 9 12 8 9 10 10 27 32 35 36 34 31 25 27 25 23 25 25 22 21 17 13 14 9 6 5 10 7 9 10 8 6 5 5 2 4 5 5 4 6 6 6
17 20 15 8 18 5 5 9 11 5 7 7 15 24 32 37 36 35 32 30 28 25 25 23 23 21 19 16 15 12 10 6 6 8 8 7 10 11 7 3 2 2 6 8 8 6 7 5 3

GFSSGP_850_spd_021.txt.gz
Wind_Speed
5 4 4 3 3 5 4 6 3 6 2 2 5 5 5 2 5 5 19 19 13 16 22 25 24 21 16 14 12 10 9 8 9 9 7 7 6 5 4 4 3 2 1 3 4 4 5 5 6
6 6 5 2 3 2 5 4 8 3 6 2 10 10 4 2 3 14 21 20 16 10 11 14 24 21 18 16 14 13 11 10 10 9 6 5 4 4 4 4 3 3 1 1 3 3 4 5 5
7 7 2 3 3 5 5 3 2 10 20 8 2 7 8 4 8 21 19 18 11 8 12 19 24 23 21 19 18 16 14 13 12 10 7 5 4 3 3 3 3 2 1 1 3 4 5 5 5
8 3 1 2 7 5 5 3 5 7 13 5 2 5 3 7 19 13 17 12 11 10 14 17 21 25 24 22 22 20 18 17 15 12 10 8 4 3 2 4 4 3 2 2 3 5 6 7 7
11 4 1 3 5 4 4 10 15 5 4 2 1 4 5 9 12 11 12 9 6 8 12 14 19 27 27 25 24 23 21 20 18 16 14 11 8 5 2 2 5 5 4 4 4 5 7 8 10
3 2 1 5 5 2 3 11 9 4 4 7 2 2 1 9 14 14 8 4 7 8 8 16 19 28 29 27 27 26 25 24 22 19 17 15 12 8 5 1 4 6 5 5 6 7 8 11 12
4 3 5 4 3 5 4 6 1 3 5 7 4 2 1 7 14 13 10 11 12 15 17 19 20 24 30 31 30 29 27 25 25 23 21 18 14 12 9 5 3 5 6 5 6 8 9 10 11
7 4 2 5 3 5 4 6 3 10 6 18 2 2 3 4 13 13 18 18 19 21 20 21 24 25 29 34 33 31 30 29 28 27 24 20 18 15 12 9 6 6 6 6 5 5 7 9 11
9 2 5 5 6 3 6 7 33 19 23 20 19 17 10 3 11 21 24 24 24 25 26 28 28 29 31 33 35 35 33 32 31 30 28 24 24 20 16 12 9 7 7 7 6 6 7 6 7
6 5 10 7 6 2 6 5 24 23 28 23 20 21 12 13 11 14 18 24 29 29 28 32 34 32 34 36 39 39 37 37 36 35 33 31 28 23 19 15 12 10 9 8 8 8 8 7 7
7 12 8 7 15 17 5 15 13 8 12 31 20 22 26 28 24 18 14 15 23 24 27 29 32 34 36 39 40 43 43 40 39 39 38 36 32 28 24 20 16 13 13 11 10 10 11 10 9
6 11 19 17 19 16 13 18 20 24 30 33 31 33 31 34 32 25 23 24 23 25 28 25 28 32 35 40 43 44 45 44 42 42 42 40 37 32 28 23 19 16 15 14 13 12 12 12 11
15 13 16 20 24 24 23 24 27 31 30 33 34 36 37 33 33 31 30 26 23 26 28 30 30 32 33 39 43 45 44 46 46 45 44 43 41 36 30 26 21 18 18 17 14 14 14 14 14
2 3 18 21 23 21 14 24 27 34 36 32 33 30 30 35 35 33 29 32 38 38 37 34 37 36 35 35 38 40 44 45 49 49 48 45 42 36 32 27 23 20 21 17 16 16 15 17 17
17 12 12 15 4 6 10 24 29 27 32 35 36 38 37 38 34 37 41 44 45 44 42 38 34 31 38 40 36 36 40 44 48 49 49 46 42 35 32 28 24 21 18 18 19 17 18 18 19
2 4 13 14 14 9 8 36 14 9 19 30 33 34 34 41 43 45 46 42 44 46 46 42 40 35 34 31 37 36 38 39 41 44 47 43 38 32 31 27 23 19 16 18 18 18 18 18 21
5 7 9 2 7 9 19 39 16 26 25 30 30 35 43 43 42 42 47 50 47 43 45 41 39 40 31 31 31 33 33 36 36 43 44 34 30 28 27 25 19 16 16 16 18 17 17 20 23
10 13 1 3 4 11 17 29 18 19 20 20 28 36 38 40 45 52 45 47 48 40 34 35 31 34 29 30 28 34 37 41 44 42 34 28 28 24 26 20 16 17 16 15 16 17 20 22 21
10 4 1 2 5 8 17 22 19 14 25 28 37 38 39 37 42 46 45 45 39 30 28 29 26 29 30 30 31 36 37 41 42 37 26 26 24 24 23 18 17 18 16 15 15 19 21 22 18
8 9 11 6 11 6 13 13 15 14 17 24 29 31 32 41 38 37 34 26 30 32 29 27 24 26 32 33 33 37 38 39 35 28 24 23 23 22 19 16 19 17 16 16 18 20 20 19 15
6 6 5 7 11 19 16 21 17 20 19 29 32 33 33 36 38 38 36 36 34 32 32 30 29 24 29 32 36 38 34 29 28 26 25 24 23 19 17 17 17 17 16 18 18 20 19 14 12
17 5 7 4 4 8 2 18 25 18 23 16 23 24 29 39 39 37 32 35 33 34 30 28 28 26 28 28 35 38 33 28 28 28 27 28 21 22 21 18 16 15 16 18 19 13 11 12 12
6 11 8 13 11 4 7 5 15 7 13 22 20 29 40 45 41 37 34 34 38 38 36 22 24 26 25 27 30 28 25 26 25 24 21 22 18 21 17 17 17 15 18 16 11 10 10 10 11
5 3 10 9 3 7 12 10 25 10 12 10 10 22 29 27 25 31 34 38 28 21 14 18 22 21 18 16 17 20 21 26 26 23 21 16 18 20 18 15 15 16 11 8 8 6 6 7 7
4 5 1 2 4 11 7 14 21 4 5 6 7 18 26 26 27 27 26 15 12 9 13 16 15 14 13 13 14 15 20 23 21 20 17 18 18 13 14 14 14 10 7 6 5 5 7 6 5
7 8 4 6 5 5 10 11 8 9 12 24 25 30 27 28 26 17 10 8 11 15 15 16 16 16 16 17 18 18 19 19 18 16 16 15 14 12 11 9 7 6 6 5 5 7 8 8 6
1 4 7 4 5 1 5 7 9 13 20 14 13 17 20 17 14 12 12 15 18 17 17 15 17 20 19 19 19 18 18 17 17 16 15 13 11 9 6 6 6 5 3 3 4 5 7 7 7
5 3 3 1 4 5 5 6 10 5 8 6 7 11 18 17 16 17 20 21 19 18 18 19 20 21 21 20 21 20 19 18 17 15 11 9 8 6 7 8 6 5 4 4 6 7 8 7 7
2 2 3 4 5 3 3 6 6 9 8 11 16 15 20 25 25 25 25 22 21 21 22 23 25 25 24 21 19 18 16 14 12 10 10 9 7 7 10 9 5 3 4 6 9 10 9 8 7
0 4 4 3 6 5 3 8 8 3 7 10 16 10 23 27 30 28 27 24 24 26 28 29 26 24 20 17 15 14 11 10 9 11 11 9 9 8 10 8 3 5 6 8 13 13 11 8 9

GFSSGP_850_spd_024.txt.gz
Wind_Speed
6 5 7 6 2 4 3 6 2 4 3 4 6 6 11 9 7 5 17 17 14 16 18 25 24 20 16 14 14 12 11 11 10 9 9 9 8 8 7 6 5 3 2 1 2 3 4 5 5
6 6 5 2 4 2 5 4 4 5 3 14 8 8 5 5 6 6 20 19 11 14 18 20 23 21 19 16 16 15 13 12 10 9 9 7 7 6 6 6 5 4 3 1 1 1 2 3 3
8 7 2 3 4 5 5 4 3 5 16 5 3 4 4 4 12 19 20 18 13 14 16 16 19 21 20 19 18 17 15 14 11 10 9 8 7 5 6 6 5 4 2 1 1 1 2 3 3
10 4 1 2 6 6 6 6 0 7 8 3 7 3 1 3 11 18 19 18 15 12 14 15 18 20 22 21 19 19 18 16 14 13 11 9 8 6 5 5 5 3 1 1 0 1 3 4 4
10 2 1 2 5 6 5 8 7 6 5 5 0 3 3 5 17 14 19 15 12 9 10 15 17 17 22 24 23 22 20 19 18 16 13 12 9 8 5 4 3 3 2 2 2 2 3 5 6
4 4 0 5 5 5 7 11 4 4 4 10 4 7 3 10 14 9 14 10 9 11 10 15 18 20 25 27 26 24 24 22 21 19 16 14 12 9 7 5 3 1 2 3 2 2 4 5 8
5 4 4 3 3 4 6 8 5 4 4 7 4 2 2 1 9 10 11 13 10 12 14 15 18 23 28 30 30 28 27 25 24 22 20 18 16 13 11 7 4 2 1 2 3 2 4 6 8
5 4 2 5 5 6 5 3 12 7 3 9 11 4 5 7 7 9 14 14 14 14 15 19 21 25 28 32 33 32 30 28 27 26 25 22 20 17 14 11 8 6 4 3 3 3 4 5 6
7 2 5 6 7 5 2 4 9 6 9 8 9 12 16 15 6 12 15 18 21 22 24 24 27 30 29 32 36 35 34 32 31 30 29 26 26 22 19 15 12 9 7 6 5 5 4 4 4
6 5 10 7 7 4 5 5 16 8 13 3 19 26 28 14 11 13 18 20 24 28 28 28 27 31 32 34 37 38 39 37 37 36 34 33 31 27 23 19 16 13 11 10 8 8 7 5 5
9 10 8 8 13 8 6 12 12 14 6 14 22 32 26 16 25 19 22 24 21 19 24 29 30 31 32 37 39 41 43 43 42 40 38 36 34 32 29 24 21 17 14 12 12 11 9 7 6
6 16 19 11 8 5 6 8 11 22 18 29 33 36 38 37 29 26 23 20 20 26 22 21 26 33 34 40 41 45 46 47 46 45 43 42 40 36 32 28 24 20 16 15 16 13 11 9 8
13 6 16 23 17 16 17 21 17 30 27 32 34 38 40 40 38 32 26 21 25 23 18 25 24 26 32 37 43 46 46 49 50 48 47 45 44 40 36 31 27 23 19 18 18 15 14 11 10
1 9 16 14 17 12 10 21 15 23 25 29 33 39 40 39 36 33 31 27 27 27 32 34 32 31 31 36 39 42 46 48 52 51 50 49 48 43 36 32 30 24 21 20 16 16 15 13 13
10 5 3 7 6 8 15 22 31 30 27 30 36 41 43 42 33 31 27 27 31 35 34 38 41 37 32 34 36 37 44 47 48 52 52 46 52 47 37 32 29 25 21 20 18 17 17 16 15
5 5 12 14 10 8 11 31 16 20 26 35 38 30 32 36 35 34 35 37 37 36 41 44 38 36 33 34 35 37 39 45 44 44 49 50 50 46 37 33 31 25 25 21 19 17 17 16 16
4 14 6 4 9 7 18 33 2 16 19 22 27 35 39 42 44 42 39 35 36 41 43 39 40 36 31 30 32 34 40 37 40 44 45 46 46 38 35 34 29 27 26 20 16 16 16 17 17
6 3 2 4 7 15 15 28 11 24 27 25 31 37 40 41 41 39 40 43 44 38 40 35 31 26 28 28 31 36 34 32 36 40 43 40 37 26 28 28 29 24 22 18 15 13 15 18 19
4 3 3 3 1 4 14 19 14 13 21 20 30 33 39 41 47 43 40 33 36 33 32 27 25 27 32 30 30 33 31 33 36 38 38 34 22 21 24 27 26 24 22 17 13 14 17 18 19
7 0 3 5 8 4 4 11 14 13 17 26 28 29 32 38 38 40 40 39 34 34 33 31 31 30 31 28 30 31 32 33 34 35 29 23 18 22 21 24 23 21 19 17 15 15 17 19 18
4 4 3 6 7 13 10 18 14 15 19 27 30 35 40 39 40 39 37 35 33 35 31 30 28 29 28 25 28 31 30 29 30 31 23 18 21 20 23 18 18 19 17 15 14 15 17 17 14
7 4 2 2 1 5 3 13 19 18 20 17 22 31 37 38 38 40 39 38 36 37 38 33 27 27 29 29 30 30 31 30 29 20 18 19 21 22 16 20 16 17 15 13 13 16 16 12 11
7 9 9 8 7 4 5 5 17 5 8 11 16 30 35 44 43 45 46 45 39 37 36 37 33 29 32 31 27 27 26 21 16 15 18 21 21 18 19 18 17 16 12 14 16 14 10 11 10
5 5 4 2 3 4 8 9 24 7 13 15 9 25 31 32 30 28 22 23 30 32 31 20 14 19 23 23 21 18 17 16 15 18 23 25 18 20 20 18 15 13 14 14 11 10 9 8 7
5 5 2 1 2 8 10 11 23 7 9 6 8 16 17 17 20 20 20 28 23 15 9 7 9 12 13 13 12 11 10 10 14 20 25 21 20 21 16 11 14 12 12 9 9 9 8 7 6
6 7 4 6 5 5 6 11 7 12 14 15 15 21 25 25 21 22 21 15 6 5 7 11 13 15 15 15 16 14 12 13 17 16 14 14 13 12 13 10 10 9 9 8 8 8 6 7 8
3 4 7 2 3 1 5 6 7 15 13 11 10 19 28 27 20 15 8 6 10 12 14 15 17 18 19 18 17 16 15 14 15 15 13 15 15 11 8 7 9 9 8 7 6 5 5 8 9
4 3 2 1 4 5 5 5 6 9 4 8 10 12 26 16 12 11 13 16 16 15 16 16 16 19 20 19 19 19 18 16 16 16 16 15 12 9 8 9 9 8 7 5 4 5 7 8 9
3 3 2 3 5 3 3 5 6 8 4 6 14 29 23 13 15 18 21 20 18 18 18 19 19 21 21 20 20 20 19 17 16 16 14 11 8 8 9 11 9 7 4 4 5 7 9 8 8
3 3 5 4 6 4 4 6 7 3 8 12 15 21 9 15 20 25 24 22 20 21 21 22 22 22 21 20 20 19 18 16 14 12 11 10 10 12 13 10 6 2 4 6 9 10 11 10 10

GFSSGP_850_spd_030.txt.gz
Wind_Speed
9 6 5 5 7 7 14 8 3 10 7 5 4 8 12 12 15 0 11 18 13 13 13 19 21 19 18 18 18 17 17 16 16 15 14 13 12 10 10 10 8 6 4 3 2 1 0 2 2
7 7 6 6 8 11 12 9 12 8 6 2 8 9 9 11 7 2 17 18 14 12 13 19 22 21 19 20 19 18 17 17 16 16 15 13 13 12 10 9 9 7 5 3 2 1 1 0 1
8 8 9 5 12 14 7 9 9 4 4 6 8 8 8 6 8 7 14 17 15 14 14 15 20 21 20 19 20 18 18 18 17 17 16 15 14 13 12 10 9 8 7 5 3 2 1 1 2
5 7 8 10 17 17 8 3 5 2 3 7 6 6 5 5 7 12 22 15 14 14 14 15 19 21 21 19 19 19 18 19 18 18 17 16 15 14 12 11 9 8 7 6 5 4 3 3 3
7 7 10 15 21 16 10 12 6 5 4 10 11 8 5 5 11 21 21 14 12 14 15 16 21 22 22 21 21 20 19 19 19 18 17 16 15 14 12 12 10 9 7 5 5 4 4 4 4
11 9 11 17 19 17 15 14 13 12 8 10 12 8 7 10 13 19 19 16 13 13 15 16 19 23 23 23 23 22 21 20 20 20 19 18 16 15 14 13 11 9 7 6 5 4 3 3 4
16 11 16 19 16 17 17 17 13 12 10 10 7 12 8 14 12 16 19 16 14 14 15 17 19 23 24 25 25 23 24 23 23 22 21 20 19 17 16 14 12 10 9 7 6 5 4 3 5
17 9 21 19 17 20 11 12 19 15 12 6 5 8 11 6 12 14 16 16 15 13 14 17 19 22 24 26 26 27 27 27 26 25 23 23 22 21 19 17 15 13 11 9 7 6 4 4 4
16 12 16 22 19 15 8 15 13 11 8 10 5 3 8 5 11 12 13 13 13 13 14 15 17 20 22 26 28 30 30 30 29 28 27 26 26 25 24 22 18 15 13 11 9 7 6 5 5
18 16 26 20 14 11 18 16 12 10 19 16 10 5 4 4 8 12 12 13 13 12 12 14 19 21 24 26 26 28 33 34 34 34 34 32 31 29 27 25 22 20 17 15 11 10 10 8 5
26 26 22 25 21 19 20 20 16 14 17 21 17 14 4 5 7 8 11 10 10 10 10 14 16 16 21 23 25 27 28 34 37 38 39 37 35 32 31 25 28 26 20 14 15 13 12 11 9
25 30 33 29 20 20 21 26 27 26 24 22 14 15 17 16 15 17 15 17 17 16 14 11 16 19 19 19 20 22 27 31 34 36 40 41 39 37 31 26 23 29 27 18 19 11 12 13 12
28 30 29 29 28 22 23 28 27 31 29 27 28 24 26 25 23 19 18 19 20 20 22 20 19 22 16 16 20 22 26 29 30 31 36 41 36 39 34 28 26 23 21 21 20 13 18 14 12
22 32 36 34 24 28 25 31 26 38 31 31 26 29 29 28 25 22 21 22 21 20 22 25 24 23 20 21 23 26 27 30 31 29 32 39 36 36 32 34 29 25 26 24 23 17 17 15 12
30 26 24 25 35 28 23 30 36 38 33 30 32 33 32 32 29 28 27 24 23 21 20 24 22 20 23 23 29 29 28 29 30 30 31 33 37 36 37 30 29 27 29 28 25 17 19 12 14
16 22 24 33 24 29 26 29 37 37 37 35 37 39 38 37 33 33 29 26 22 19 19 23 24 23 26 28 30 30 31 28 31 27 25 30 33 33 35 30 28 26 28 30 23 21 13 14 13
20 24 31 30 28 24 22 37 37 41 31 36 32 37 36 35 31 27 22 21 20 21 25 27 26 28 29 31 30 31 28 29 27 24 24 26 28 28 31 27 27 29 27 25 25 18 16 14 14
27 26 27 28 23 27 30 35 30 29 22 35 36 31 30 26 26 25 25 26 25 26 30 30 33 34 34 29 29 27 24 27 24 23 23 25 26 25 27 24 26 28 25 24 22 19 14 17 14
24 28 24 21 22 24 28 33 31 31 36 34 32 32 34 36 34 32 30 28 27 27 33 31 30 29 29 26 24 21 22 21 20 20 23 23 23 24 23 21 22 26 26 28 28 24 18 14 14
25 27 28 19 16 21 25 30 28 27 25 35 35 36 37 38 36 35 33 30 30 32 31 32 31 31 25 23 22 19 17 16 16 16 19 21 23 19 19 20 21 23 23 28 29 22 16 14 13
23 26 25 25 15 21 20 24 25 21 26 30 34 35 38 38 37 36 35 36 37 34 33 28 25 25 25 22 21 21 18 19 16 15 19 19 17 17 19 21 19 22 21 22 21 20 15 10 12
24 23 22 25 23 20 20 19 23 24 28 30 36 37 40 39 37 38 38 37 33 30 25 23 25 26 27 27 22 19 16 13 14 15 15 12 17 19 20 18 19 20 20 17 18 16 11 12 10
18 21 19 20 22 24 30 17 19 19 22 23 21 32 34 36 36 32 28 27 26 26 24 26 30 29 28 26 22 21 17 13 12 12 13 19 18 17 18 18 19 20 19 18 16 13 12 12 10
15 13 19 19 15 18 23 18 19 18 24 18 18 24 27 27 28 24 22 20 19 17 18 20 25 26 25 24 23 22 17 15 14 16 16 19 19 19 18 18 20 20 18 17 14 12 12 11 11
13 16 12 17 18 18 20 17 19 9 9 1 10 11 11 15 17 18 17 13 11 11 11 13 16 18 20 19 17 16 16 15 15 14 18 19 19 19 20 21 19 18 16 14 12 12 11 11 10
22 19 16 18 16 20 25 15 15 12 17 8 8 10 12 13 14 15 15 13 11 10 9 8 9 11 12 14 15 15 16 14 14 15 18 17 18 18 21 19 17 14 12 12 14 9 10 11 10
23 14 24 24 21 16 19 24 25 10 10 5 1 8 14 15 14 11 9 9 8 8 10 12 14 15 16 17 17 17 17 18 19 21 20 19 19 19 18 16 15 13 13 11 11 10 11 11 12
22 1 7 15 16 18 15 23 12 21 23 4 7 13 19 16 7 6 10 10 12 13 15 16 16 18 19 19 19 19 21 21 22 21 20 20 20 19 17 15 14 12 11 11 10 10 12 11 9
4 7 13 14 17 9 13 15 20 14 11 6 11 18 19 13 2 5 9 14 15 16 17 18 19 20 20 19 21 22 22 22 21 21 20 19 18 17 14 12 11 11 10 10 11 10 10 11 9
9 17 4 5 16 13 10 4 11 18 10 11 15 21 21 12 4 5 11 16 17 17 18 19 20 20 20 21 21 22 22 21 21 19 18 16 13 13 12 12 11 10 9 9 9 10 9 11 11

GFSSGP_850_spd_033.txt.gz
Wind_Speed
9 6 3 10 8 8 18 19 15 12 10 6 5 7 9 8 3 4 16 14 19 20 17 21 21 18 16 16 17 17 17 17 17 16 15 14 13 11 10 8 7 5 4 3 2 2 1 0 1
3 6 9 14 9 14 14 19 16 8 15 14 11 11 9 12 11 11 18 14 19 16 13 19 21 20 18 17 17 17 17 17 17 16 15 13 12 11 11 9 7 6 4 3 3 2 3 2 2
10 10 13 9 14 17 15 20 10 12 7 9 12 10 9 6 4 7 17 18 18 15 13 16 20 21 20 18 18 18 18 18 17 16 15 13 12 12 10 10 8 7 6 4 2 2 1 1 2
7 10 13 12 20 23 26 2 12 8 11 15 13 9 7 2 7 14 19 18 18 15 13 14 19 22 21 19 19 20 19 18 17 17 15 14 13 12 11 10 9 8 6 5 4 2 1 1 2
10 13 13 17 21 25 18 5 4 9 13 16 14 11 13 10 7 21 22 19 18 18 16 16 17 22 22 21 20 20 19 19 19 18 17 16 15 15 14 12 11 10 8 7 6 5 4 3 4
14 17 13 16 22 20 20 10 14 16 13 15 19 18 17 13 16 21 21 19 16 18 18 17 17 21 23 22 21 20 20 20 19 19 19 18 18 17 16 15 13 12 10 9 8 6 4 5 5
20 14 19 22 20 21 20 18 16 17 19 18 19 18 12 13 18 26 21 18 16 16 16 17 16 20 22 22 22 21 22 22 21 21 21 21 21 20 18 17 15 14 12 11 8 6 5 5 6
25 14 25 21 19 23 13 19 20 21 20 13 9 14 13 19 21 24 20 18 16 15 14 15 15 17 21 23 24 24 24 23 22 23 23 23 23 22 21 19 18 17 15 12 10 8 6 7 7
24 17 19 24 23 19 15 19 19 20 23 10 16 3 9 18 19 22 21 17 16 15 14 14 15 15 17 22 24 27 27 27 26 26 26 26 27 27 26 24 22 19 18 16 12 9 9 10 9
25 17 28 23 22 17 14 16 20 24 16 17 20 6 5 10 20 22 22 20 17 15 14 14 16 16 16 18 19 22 26 30 30 31 32 32 31 30 28 28 26 23 23 19 14 11 13 12 9
32 28 26 27 30 26 16 23 25 25 18 26 21 16 10 10 14 21 24 22 23 20 16 13 17 18 19 17 20 23 20 24 30 33 36 36 35 33 29 25 28 29 27 23 19 17 16 14 7
27 38 37 36 37 21 18 25 28 28 24 26 28 23 24 14 14 13 11 13 13 11 12 11 14 22 16 18 19 20 20 19 22 26 33 37 37 35 32 27 24 29 29 28 23 17 18 16 15
32 31 38 37 29 33 26 26 28 32 30 28 28 18 13 17 17 18 18 19 19 15 15 17 15 22 21 14 18 18 20 21 21 22 28 31 31 33 31 30 27 26 24 26 22 20 17 17 16
31 35 38 37 34 34 31 29 28 37 34 33 32 31 28 27 25 23 23 22 22 21 19 16 17 21 24 17 17 18 20 20 24 24 28 33 31 32 32 34 31 28 24 24 22 22 18 18 15
31 28 28 28 34 35 32 28 30 43 35 36 37 36 32 32 30 27 23 23 23 23 20 19 22 21 25 24 22 22 20 22 23 25 28 33 37 32 35 33 30 30 28 27 25 20 20 16 18
19 21 26 35 28 30 31 34 34 40 39 40 39 39 34 36 35 33 28 27 27 26 23 21 19 17 18 21 23 23 24 23 24 23 26 32 38 36 35 31 28 29 29 26 26 24 19 20 17
21 26 30 32 29 29 28 35 34 46 42 36 42 42 40 40 40 37 34 33 24 21 20 20 21 19 21 22 27 27 29 28 27 25 24 29 34 34 34 30 29 29 29 29 26 25 23 17 17
24 26 29 30 27 29 31 34 33 40 40 35 45 46 39 44 40 35 30 21 21 22 23 27 25 24 28 28 31 33 25 29 27 25 25 27 31 29 29 28 27 30 30 29 26 26 20 20 16
24 28 32 29 25 28 29 31 36 32 35 32 36 32 45 48 44 34 25 25 26 28 27 26 26 28 27 26 23 23 26 25 23 22 25 27 27 26 30 26 28 29 29 29 28 26 23 22 17
24 26 30 29 30 23 22 27 34 27 30 36 37 40 40 35 31 33 33 34 34 32 31 31 31 29 29 26 28 25 21 20 21 19 22 24 24 25 27 25 23 27 25 28 27 29 22 17 19
20 23 25 27 24 28 25 29 30 26 30 33 39 42 42 40 40 39 37 36 35 33 31 31 31 33 31 29 24 22 22 21 20 20 20 21 22 27 23 23 22 23 25 23 29 26 22 19 18
21 20 21 26 21 21 28 21 27 26 25 27 33 32 35 36 36 38 40 38 35 37 37 35 34 33 29 28 24 23 20 19 20 20 18 20 21 20 25 23 24 23 21 21 25 20 20 20 14
22 19 21 23 25 24 30 20 22 22 27 27 27 39 42 41 41 40 39 36 34 34 31 30 29 29 29 25 26 22 25 18 16 18 23 17 21 24 23 26 24 22 20 20 18 21 21 14 12
15 17 20 21 20 22 26 26 24 22 23 21 20 27 31 32 32 33 31 30 26 25 24 25 28 30 32 27 28 26 23 20 19 20 20 20 24 24 22 21 19 19 20 21 20 19 17 14 11
16 14 12 16 16 19 23 25 21 24 29 25 22 29 15 20 18 21 24 26 23 20 21 21 24 24 22 23 21 22 22 21 19 25 20 22 23 22 21 22 20 19 19 19 16 14 11 11 11
17 17 13 17 16 19 26 26 21 24 23 19 23 19 17 14 19 19 20 22 19 16 16 16 17 17 18 17 18 18 20 19 21 19 18 18 18 18 22 20 20 19 16 14 14 11 10 10 12
18 17 21 21 25 18 20 29 31 30 19 14 16 11 8 13 17 19 18 17 17 16 14 13 15 15 15 16 18 19 18 19 15 19 18 17 19 19 22 21 18 15 15 14 13 10 11 11 12
16 15 13 6 19 23 18 22 19 30 19 15 10 3 11 9 14 17 15 14 13 12 14 15 16 17 18 19 19 20 22 23 21 23 21 21 21 20 18 16 15 14 13 12 11 11 10 12 17
1 6 8 8 12 12 16 12 15 27 29 19 5 3 5 7 2 9 12 13 16 17 17 18 19 20 20 22 23 25 23 24 25 23 21 19 19 17 15 14 13 12 12 11 11 11 11 12 12
13 13 19 4 12 18 11 17 16 13 21 13 4 4 7 3 2 1 11 17 19 19 19 20 20 21 21 24 25 25 24 23 22 20 18 17 16 15 13 12 11 11 10 10 11 11 11 12 13

GFSSGP_850_spd_036.txt.gz
Wind_Speed
6 5 2 9 6 7 16 20 21 23 16 13 9 4 5 17 15 10 24 25 20 27 25 21 20 16 16 17 17 19 19 18 17 16 15 14 13 10 9 8 7 6 6 6 6 5 6 5 4
4 4 6 10 8 13 14 19 23 22 11 7 3 2 7 8 25 23 23 26 22 25 26 23 20 17 17 17 17 17 17 17 16 15 14 13 12 10 9 7 5 5 5 4 4 5 5 5 5
5 5 7 5 10 16 17 20 17 14 4 5 8 11 9 7 20 26 24 26 24 23 23 21 20 19 17 17 17 16 16 16 16 16 15 13 11 10 8 7 6 5 4 3 2 3 4 4 5
5 10 11 9 17 21 26 24 29 12 16 9 11 8 6 7 18 20 28 23 22 23 25 21 20 19 18 16 17 17 17 17 17 16 15 14 13 11 10 9 7 6 5 4 2 1 1 3 4
10 10 11 15 20 21 22 26 29 11 6 14 18 14 15 5 10 22 27 22 23 24 24 22 19 19 20 18 18 18 17 18 17 17 16 15 14 13 12 10 9 9 7 6 4 3 1 1 3
14 16 12 13 20 22 21 30 23 7 12 12 17 16 16 13 20 24 26 22 19 24 23 22 19 19 20 20 19 19 19 19 19 18 18 17 16 15 14 13 12 11 10 9 8 6 5 3 3
17 13 18 21 20 19 21 26 20 10 14 21 19 18 20 23 24 23 24 21 21 18 20 21 19 19 21 21 20 20 20 20 19 20 19 19 19 19 18 17 16 15 13 13 11 9 7 6 4
22 12 23 21 18 23 23 20 26 19 17 22 24 2 12 20 19 26 25 24 24 22 16 18 20 19 22 24 23 22 22 21 21 21 21 21 22 22 21 21 20 18 17 16 14 12 9 8 6
26 15 18 24 22 20 23 19 18 21 19 25 19 6 14 20 21 28 28 27 25 26 23 16 16 16 18 23 24 24 24 24 23 24 25 25 26 27 26 25 23 21 20 20 17 13 13 12 8
20 18 29 24 19 20 22 21 25 20 23 23 15 4 2 12 25 24 27 26 22 25 26 23 20 18 14 18 20 22 26 26 26 26 28 30 30 31 29 28 27 25 25 23 19 17 18 13 11
27 27 26 30 32 28 23 26 21 17 19 27 23 16 10 19 28 30 21 21 20 22 23 26 23 19 16 12 18 18 20 21 25 29 31 32 33 33 32 31 30 30 30 29 24 24 21 16 15
26 35 35 35 38 34 26 30 28 25 28 33 25 22 22 17 20 28 26 24 16 12 14 21 23 17 14 15 21 21 23 20 19 20 25 32 35 37 36 35 34 33 33 33 29 28 22 19 16
30 29 38 38 36 35 36 32 32 24 31 33 30 25 25 27 22 16 15 11 12 10 9 6 10 14 18 19 25 27 25 20 18 19 20 23 28 32 37 36 34 35 31 31 32 30 24 22 16
29 34 34 38 35 31 29 30 31 33 29 32 34 30 19 19 18 18 17 15 16 16 14 15 9 14 22 23 23 27 26 28 22 23 24 26 28 29 29 31 35 31 32 28 25 30 27 20 17
27 27 25 28 32 29 32 26 32 36 32 30 33 36 32 26 39 33 28 23 21 21 17 20 20 17 20 25 24 24 26 27 28 27 29 28 31 32 30 29 32 34 28 25 26 18 23 20 21
22 20 21 29 27 31 24 30 28 40 33 33 35 34 36 33 34 27 26 30 23 26 27 29 25 20 22 27 27 26 28 26 27 26 29 32 33 35 34 31 33 33 34 26 28 25 27 32 29
17 21 24 25 25 27 26 31 27 37 34 29 33 34 37 35 34 37 35 34 31 28 29 28 26 25 18 18 21 24 26 26 28 26 28 29 33 36 37 34 33 30 31 34 29 32 30 28 26
18 21 23 27 26 25 26 29 28 34 31 33 35 36 37 36 42 36 32 35 34 29 26 25 27 26 28 20 25 27 29 32 32 32 30 26 31 36 36 34 32 31 30 34 31 32 33 31 27
19 22 27 28 27 24 24 25 28 27 32 29 29 29 39 42 40 37 32 43 34 27 24 29 26 27 29 28 30 34 38 38 36 33 32 30 30 34 36 35 30 30 33 35 35 30 29 30 28
20 20 25 25 26 23 27 28 27 22 24 29 30 34 33 37 38 36 43 41 27 22 22 27 31 33 33 34 36 34 27 24 24 25 27 25 29 33 34 34 26 33 35 30 33 31 31 31 26
18 21 21 24 22 24 25 26 28 27 22 24 30 31 37 36 37 33 28 28 26 27 29 30 32 35 34 36 34 30 28 31 24 23 27 27 29 32 33 32 26 29 29 30 33 32 32 30 25
21 21 21 21 19 17 20 18 22 21 23 21 28 31 25 24 29 33 34 36 35 31 25 26 29 31 35 36 35 34 33 31 32 21 26 28 28 33 34 30 25 26 26 30 28 32 33 31 24
23 21 20 22 20 22 23 15 19 22 22 22 22 29 28 29 31 33 33 34 34 36 38 37 40 43 41 37 33 33 30 25 20 22 24 26 26 29 30 27 23 28 25 26 26 31 33 27 25
28 20 22 18 17 17 24 19 21 19 23 24 18 28 35 39 43 43 40 41 41 39 36 33 38 37 38 36 36 32 31 31 21 23 27 29 29 26 24 27 24 27 22 25 23 23 24 25 21
27 16 12 15 14 17 22 21 19 21 24 24 22 23 30 26 27 35 41 40 39 34 33 30 29 26 31 34 34 34 31 27 25 28 30 30 26 26 26 24 25 26 23 22 21 23 22 22 17
26 9 9 19 16 17 20 15 17 19 22 33 33 35 25 21 29 19 16 18 22 28 29 27 24 25 29 31 31 29 26 24 23 29 33 27 24 23 20 22 22 22 26 21 22 19 16 13 13
19 11 20 12 19 14 19 27 21 22 23 25 25 32 18 21 17 14 20 22 25 25 26 19 20 24 21 23 26 24 23 24 27 27 22 21 18 20 22 21 21 22 20 17 16 13 11 12 11
15 9 12 5 12 17 17 22 12 20 19 24 24 19 26 9 12 20 22 22 22 20 18 20 16 18 19 19 22 23 26 23 21 17 18 18 19 19 24 22 20 18 16 14 13 12 11 13 12
12 3 3 11 6 5 8 12 12 17 22 21 22 20 9 15 14 18 28 24 17 15 14 17 17 18 19 19 22 22 24 23 20 21 21 20 21 21 22 20 17 16 14 12 11 12 12 13 15
17 14 11 6 10 9 12 21 15 23 28 29 23 9 9 12 9 9 13 16 17 21 19 22 22 23 22 22 23 25 23 22 23 23 23 22 21 17 15 14 12 11 11 10 9 13 8 11 14

GFSSGP_850_spd_042.txt.gz
Wind_Speed
5 3 3 2 2 4 4 7 5 10 10 8 25 16 11 11 7 5 27 39 37 37 35 33 32 30 29 28 28 28 27 26 24 24 23 21 19 17 15 14 13 11 11 9 9 9 9 9 9
2 4 2 2 3 0 6 6 19 4 17 26 31 23 4 3 13 17 44 33 37 37 36 34 33 30 29 28 27 26 26 26 25 23 21 20 18 16 14 13 11 10 9 9 8 8 8 9 9
1 2 1 3 4 6 6 5 5 8 28 28 16 13 12 9 16 41 41 40 37 38 38 36 34 31 29 28 26 25 24 24 23 21 20 18 16 15 13 11 10 9 7 7 7 6 7 7 7
3 2 2 2 11 7 9 9 12 15 32 30 18 6 7 20 30 34 44 37 36 39 39 38 36 32 30 28 26 24 23 22 21 19 18 17 16 14 13 11 9 7 7 5 4 3 3 4 5
3 2 1 3 9 7 10 12 19 14 12 27 30 5 18 25 24 34 37 34 37 39 40 39 36 33 30 28 26 25 23 22 20 19 18 16 16 15 14 12 11 10 9 7 6 5 4 3 3
3 3 2 7 14 9 7 21 19 15 23 30 16 3 4 13 27 38 37 36 37 41 41 39 36 32 28 27 25 24 23 22 21 20 19 18 17 16 15 15 14 13 12 11 9 8 7 5 3
5 2 5 5 12 14 13 12 6 6 9 17 21 5 4 21 25 38 37 38 40 40 41 39 37 32 27 26 24 23 22 22 22 21 20 19 19 18 18 17 16 16 14 14 13 12 11 9 7
6 4 4 6 11 12 10 9 13 12 21 25 21 5 8 18 21 31 34 38 39 40 41 40 37 34 30 28 25 23 22 22 22 22 22 21 21 21 21 20 20 19 18 17 16 15 15 12 11
5 2 8 9 11 13 18 7 21 22 16 25 30 2 4 25 20 29 27 30 35 38 38 38 36 35 32 29 26 24 24 23 23 23 24 24 25 24 25 24 23 22 21 20 19 19 18 16 15
6 5 8 6 8 13 23 24 27 20 24 15 30 11 13 27 35 36 33 32 32 36 35 34 34 34 32 31 28 27 26 25 25 25 26 27 27 27 27 26 26 25 25 24 23 22 21 20 19
5 14 10 10 14 17 20 29 28 16 15 21 14 27 5 28 32 35 32 33 30 35 35 34 34 32 30 30 27 27 27 25 25 26 27 29 29 29 31 29 29 29 28 29 27 26 27 24 23
6 12 13 16 23 24 21 34 30 26 28 34 23 22 11 11 27 40 39 31 32 33 32 34 33 32 29 27 25 25 26 26 27 27 29 30 31 32 33 31 30 30 31 32 31 29 29 27 25
6 9 17 22 25 29 29 29 28 32 35 33 33 20 17 11 19 27 21 30 31 33 32 32 28 25 24 27 24 23 26 27 25 26 28 29 30 31 32 32 31 32 32 33 33 32 32 31 28
8 11 14 14 20 19 15 24 28 46 32 32 39 20 17 11 8 28 24 21 23 22 30 34 34 21 19 33 31 23 24 24 22 23 25 26 26 26 28 28 28 30 31 32 32 31 31 30 28
15 8 10 7 6 5 14 15 20 34 25 25 37 32 19 20 9 16 35 36 30 18 23 36 37 32 42 42 36 25 22 20 22 24 25 26 26 26 25 25 25 24 24 27 28 28 27 26 25
6 4 3 4 7 5 8 24 21 29 24 27 27 38 22 21 20 17 19 34 33 30 31 32 30 36 34 33 30 26 26 24 24 23 26 28 27 26 28 28 27 25 23 23 26 25 25 24 22
3 5 7 7 7 6 6 16 11 17 24 28 30 31 41 22 28 31 29 20 29 32 34 38 37 34 34 33 33 33 29 26 25 26 27 30 30 29 31 31 29 29 26 26 27 26 26 25 22
6 5 6 4 5 2 10 15 7 14 19 19 28 31 36 39 28 32 36 37 30 20 36 40 39 40 39 38 32 34 32 29 28 30 29 29 29 31 33 33 32 32 32 31 29 28 26 29 21
9 12 14 10 7 2 9 14 12 9 14 16 25 29 31 39 48 31 34 35 37 42 33 28 40 44 42 38 33 34 35 36 35 35 30 29 31 32 33 34 35 36 37 35 30 28 28 30 22
6 6 6 4 6 8 7 17 15 7 8 19 23 29 32 35 34 45 40 36 39 38 44 38 34 41 41 39 37 42 39 38 32 30 27 27 31 31 31 35 39 39 37 36 32 29 31 28 26
7 6 12 15 12 4 5 15 16 10 8 17 23 28 28 30 34 37 41 44 42 42 37 42 39 35 45 43 41 40 36 33 28 28 30 30 34 32 34 31 33 36 35 34 32 29 29 31 27
5 9 11 13 8 4 3 15 15 11 12 6 19 26 29 35 36 34 33 36 45 44 42 37 26 37 39 40 40 36 33 33 30 30 30 30 31 31 26 31 32 31 30 31 29 27 29 27 29
6 7 7 7 10 4 12 5 15 5 13 17 15 24 29 32 35 31 32 35 28 34 44 37 33 34 40 39 35 34 34 30 30 30 29 25 29 33 29 30 32 29 26 25 27 28 27 27 27
4 4 8 5 3 10 12 6 17 8 8 13 12 19 28 31 32 32 32 28 34 29 29 35 31 35 38 39 38 33 33 31 30 29 28 25 26 26 28 28 28 24 23 24 24 23 22 23 24
4 5 5 4 1 10 7 8 19 5 10 5 5 19 28 31 28 28 31 38 34 36 40 39 33 36 39 37 34 34 33 32 29 29 28 28 25 23 25 29 26 23 19 21 20 20 20 19 21
5 5 4 5 2 7 9 6 8 1 4 9 10 18 26 32 35 35 33 31 35 38 38 41 43 41 41 39 39 35 36 34 30 29 31 26 25 23 26 27 25 22 20 20 20 18 17 18 16
4 5 8 6 11 6 4 7 8 5 4 7 13 18 25 32 36 35 31 29 37 38 38 37 45 48 49 42 38 36 33 32 30 29 29 26 26 23 29 27 22 18 18 20 19 16 16 16 16
8 3 2 1 3 5 5 7 7 7 9 12 13 18 30 35 35 35 31 30 32 34 35 38 41 46 44 39 38 36 30 27 27 28 27 27 21 24 27 22 17 16 20 19 19 17 15 13 14
5 3 2 3 5 3 5 5 5 6 8 10 13 24 27 32 33 33 35 33 35 31 31 29 30 31 32 36 36 27 23 24 25 26 26 22 21 24 23 18 17 20 19 19 17 15 15 15 13
12 9 5 4 4 4 2 9 3 8 11 7 17 27 32 34 31 31 36 37 39 34 32 31 27 31 27 27 26 22 22 21 22 20 16 18 21 21 19 20 21 19 17 16 15 14 13 15 14

GFSSGP_850_spd_045.txt.gz
Wind_Speed
6 2 3 1 3 4 4 7 3 7 8 1 15 5 9 25 8 6 16 41 40 41 39 36 33 31 29 28 28 28 27 26 24 23 22 21 20 19 17 16 15 14 12 12 11 11 11 10 9
3 3 1 2 3 0 5 5 4 6 10 24 24 13 7 8 21 8 31 42 43 44 42 38 36 34 31 29 29 28 28 27 26 23 22 21 19 17 16 15 14 12 11 11 10 10 10 9 8
2 3 1 3 3 6 5 4 4 7 23 22 8 15 11 6 15 23 34 44 48 46 44 39 38 36 32 30 28 27 27 26 25 24 22 20 18 16 14 13 12 11 10 9 8 8 8 8 7
5 2 2 2 11 6 5 3 6 11 23 11 11 12 16 16 8 30 46 45 50 46 44 41 39 37 34 31 29 26 26 25 24 22 21 18 16 15 13 12 11 10 8 7 7 7 7 6 5
5 2 1 3 9 5 4 5 12 8 8 17 21 12 8 4 12 34 47 45 51 48 44 41 39 37 35 32 29 27 24 24 22 21 20 17 16 14 13 12 10 9 8 6 5 4 3 4 4
4 2 2 7 13 4 3 7 6 7 15 20 12 22 3 7 8 35 41 45 49 46 44 41 38 38 36 33 29 27 25 22 21 20 19 17 16 15 14 13 11 10 10 9 7 6 5 4 4
5 4 5 5 9 7 1 3 3 5 9 11 26 4 4 6 13 33 43 50 51 45 44 41 39 38 36 33 30 28 25 22 21 20 19 18 18 17 16 15 14 13 13 12 11 10 9 8 8
5 4 3 5 11 5 1 11 8 8 11 23 16 7 7 13 15 36 42 51 51 47 43 41 40 39 38 35 31 29 26 23 21 21 20 20 19 19 19 19 18 17 16 15 15 13 12 12 12
4 2 6 10 8 3 12 7 3 14 16 21 13 16 31 14 19 30 35 42 45 45 42 40 39 39 37 35 33 30 27 24 23 22 22 22 23 23 23 22 21 20 19 19 18 17 16 16 16
4 4 8 3 9 8 17 18 21 9 15 19 24 17 26 10 22 30 29 39 41 42 41 40 38 38 37 35 34 32 29 27 25 25 24 25 24 24 24 24 23 23 23 23 22 21 20 20 20
4 6 3 3 6 9 10 20 20 12 15 5 23 29 33 20 19 24 31 38 45 44 42 43 40 38 37 35 34 33 31 29 26 25 26 26 25 27 28 27 26 26 26 26 25 26 26 24 23
4 4 2 4 13 16 13 24 22 24 37 24 24 28 25 22 19 25 30 33 40 40 43 42 41 39 38 37 35 33 32 30 29 27 28 29 28 30 29 29 28 28 28 28 28 29 28 27 26
4 3 8 10 14 17 21 19 20 35 43 23 22 19 20 20 18 25 26 30 35 36 39 40 42 41 40 37 34 33 32 30 32 30 31 32 31 31 30 30 30 30 29 30 29 29 31 30 28
5 5 11 5 13 12 11 16 11 38 23 22 18 18 20 18 22 20 30 32 30 32 34 38 39 38 35 33 30 30 31 29 30 33 33 33 33 32 31 30 29 28 28 28 28 28 30 30 28
6 6 5 5 7 6 11 16 23 34 14 21 20 20 15 20 18 18 21 37 35 31 33 34 34 34 32 27 25 31 25 25 25 25 31 29 29 30 29 28 26 24 22 23 25 25 27 27 26
5 5 4 5 4 7 11 24 10 17 14 21 29 15 16 17 19 21 17 28 33 30 29 32 34 34 37 39 27 26 33 34 25 24 27 25 27 29 28 29 27 23 21 21 23 22 24 24 23
5 1 2 6 5 5 8 6 4 18 12 14 21 20 12 14 18 21 22 20 26 35 30 31 35 39 43 39 40 40 41 36 29 30 31 29 27 28 28 31 29 26 23 24 24 24 22 24 21
5 3 4 5 7 3 11 14 7 14 11 15 19 26 24 24 20 17 24 25 26 25 32 32 37 38 42 43 37 38 39 35 37 35 36 32 28 28 29 31 30 29 28 27 27 25 23 24 20
4 4 6 8 10 6 10 16 11 11 9 12 21 22 24 23 24 23 19 20 25 29 31 30 38 39 39 43 44 46 43 40 42 40 41 34 29 27 28 31 30 31 31 30 29 27 27 26 20
1 2 4 5 9 9 12 19 13 4 6 10 14 24 26 28 27 25 22 18 20 27 28 32 31 33 37 50 47 50 48 45 45 46 43 34 30 26 30 32 32 32 32 31 32 29 30 28 21
2 1 4 6 6 5 9 18 8 5 6 14 15 17 24 28 32 27 27 25 19 20 29 38 39 35 36 40 44 57 55 53 53 50 42 36 30 30 32 33 32 32 31 29 28 28 30 29 21
2 3 4 6 6 3 3 14 15 8 8 5 13 22 31 29 26 31 31 28 27 22 25 31 39 42 37 34 39 42 57 61 54 44 35 29 27 29 30 32 31 30 30 27 23 23 26 24 23
6 2 1 5 9 3 6 5 14 3 14 10 10 16 11 16 21 24 27 27 26 24 22 26 30 38 39 37 32 41 53 57 48 34 28 27 30 28 29 29 30 29 26 24 22 21 21 21 21
0 2 4 4 2 3 7 10 23 14 11 6 1 11 16 21 24 27 28 29 28 28 25 23 27 31 33 36 35 36 44 50 40 33 29 29 30 29 26 27 29 27 22 21 21 18 19 18 19
5 5 4 5 3 5 5 5 19 9 7 2 5 16 19 20 25 27 29 31 30 29 28 25 22 25 30 33 37 35 38 40 36 30 28 28 29 29 23 24 23 21 19 20 15 16 19 16 19
6 7 4 5 4 9 11 6 7 2 4 5 6 12 19 25 27 29 29 28 29 30 29 29 29 26 25 32 32 37 40 39 36 32 30 30 30 26 20 17 17 18 19 17 14 16 16 18 17
1 4 6 4 3 3 5 6 8 7 5 4 9 13 23 31 35 37 34 26 27 29 30 29 31 31 30 30 37 40 44 40 37 34 34 33 29 23 18 16 17 20 19 15 13 14 15 15 16
7 5 4 1 5 7 6 6 10 6 9 8 10 13 26 34 37 42 37 28 25 29 29 30 33 30 30 30 35 38 40 37 37 34 34 32 26 20 20 17 21 20 16 14 13 16 14 15 15
3 3 1 3 4 4 8 8 5 7 8 10 13 18 27 39 40 44 41 32 26 31 26 28 33 31 27 28 30 36 37 38 32 27 27 23 22 19 17 20 21 18 14 14 16 16 16 16 13
12 11 7 4 5 4 5 18 5 9 9 8 18 24 33 38 38 41 37 29 27 25 24 24 32 30 22 21 26 29 31 27 25 23 20 21 20 20 19 20 20 15 15 18 17 18 17 15 13

GFSSGP_850_spd_048.txt.gz
Wind_Speed
6 1 3 2 3 4 2 6 3 4 6 6 9 5 8 8 7 6 6 21 33 38 38 35 32 30 28 27 27 26 25 25 24 23 22 21 21 20 19 18 16 15 14 14 13 12 10 10 9
5 2 3 2 4 1 4 4 5 6 5 18 16 7 8 13 28 31 22 31 38 41 41 39 36 34 32 30 30 28 27 27 26 24 23 22 21 20 18 17 16 14 13 12 11 10 9 9 8
3 2 3 3 3 6 5 5 4 3 14 11 4 13 7 6 10 10 28 35 43 43 42 41 39 37 35 32 31 29 28 27 26 25 23 21 19 18 17 16 14 12 11 11 9 8 7 6 6
3 3 3 4 9 4 4 2 4 7 9 4 10 9 10 13 13 17 21 45 46 45 43 42 40 39 36 34 31 27 27 25 24 23 22 20 18 17 15 13 12 11 10 9 8 7 5 5 5
6 2 2 2 5 3 3 8 9 6 5 13 14 8 11 7 11 14 21 46 47 47 44 43 41 38 37 34 31 29 27 25 23 22 20 18 17 15 14 12 11 10 8 7 7 6 6 4 3
3 2 2 5 4 2 3 7 5 4 4 12 16 14 5 19 11 13 32 46 47 45 43 43 41 39 36 34 32 30 28 25 23 21 20 18 16 15 13 11 10 10 8 7 6 5 4 4 3
5 3 5 5 1 4 2 4 3 5 5 5 16 5 8 41 24 15 32 43 46 44 44 44 41 39 35 33 32 29 28 25 23 21 20 18 17 15 14 13 12 11 9 8 8 7 6 7 6
5 4 3 5 5 4 3 7 9 6 4 20 14 6 11 41 16 13 36 39 48 46 44 43 43 40 37 35 33 31 28 26 24 22 20 19 18 17 16 16 15 13 12 11 11 11 11 11 9
6 1 4 5 4 2 10 5 6 7 10 16 3 12 22 29 11 11 31 37 47 46 44 43 42 41 38 36 34 32 30 27 25 23 22 21 20 20 20 18 17 16 15 14 14 14 14 15 14
4 4 7 3 0 4 16 9 14 6 13 9 15 20 26 26 13 10 24 38 46 46 46 44 42 41 38 36 35 34 32 31 29 26 25 25 23 22 21 20 20 19 18 18 18 18 18 19 18
2 4 2 0 1 5 7 22 8 9 11 2 21 31 29 24 19 14 15 28 46 48 46 45 43 41 39 38 37 35 34 32 30 28 27 27 26 24 24 23 23 21 21 22 21 22 22 21 20
1 3 3 1 5 7 5 16 14 20 19 19 16 27 21 22 20 18 18 22 37 43 46 47 46 44 41 40 37 34 33 32 31 30 28 28 27 27 26 26 24 23 23 24 24 23 24 24 23
3 1 5 9 8 8 14 14 19 27 23 22 18 15 18 18 15 17 18 20 27 40 48 48 48 44 41 40 37 35 35 32 31 30 28 28 29 28 27 28 27 26 24 26 26 25 25 26 26
2 3 8 5 11 10 8 13 19 10 6 19 14 12 14 16 16 17 19 16 25 32 40 43 44 44 43 41 40 37 36 31 30 30 29 28 29 30 30 30 30 28 24 26 25 25 25 25 26
4 4 6 6 7 7 12 13 12 25 16 15 20 23 26 24 22 18 20 18 18 29 33 31 43 46 46 44 42 37 34 32 30 27 28 25 29 28 30 29 29 27 22 24 23 23 23 24 23
3 4 4 5 2 6 7 7 4 13 6 9 9 7 8 10 14 18 19 21 21 21 28 33 36 42 43 43 41 35 32 30 27 27 24 26 26 25 27 28 28 25 21 22 23 22 21 22 21
5 0 1 7 1 4 2 5 3 19 11 15 13 11 13 15 11 10 16 19 19 21 25 31 35 36 38 38 39 34 42 33 31 34 27 35 34 27 28 27 27 25 22 25 23 23 21 21 20
3 3 4 4 5 5 9 6 8 18 20 16 15 15 11 13 15 13 10 16 23 21 23 29 29 25 31 37 40 37 34 31 34 36 36 39 43 34 28 25 26 25 26 28 25 25 23 21 20
2 3 4 4 4 6 9 10 9 14 16 11 14 13 15 13 12 14 14 10 12 24 23 25 34 33 32 34 40 42 39 39 40 40 43 48 36 41 26 25 27 27 30 28 26 26 25 23 22
3 2 3 5 6 5 8 18 12 7 7 11 11 13 18 15 17 17 14 13 11 12 24 25 30 35 32 34 39 44 49 48 44 47 50 52 43 34 28 26 28 29 32 29 27 26 25 24 23
1 3 2 5 5 5 7 12 5 4 5 11 16 16 12 23 23 17 14 16 17 14 11 24 28 31 36 30 36 40 40 39 43 45 48 47 45 37 29 27 31 31 33 31 28 26 25 23 21
3 4 3 4 6 4 5 9 5 6 11 7 13 11 23 25 15 12 13 16 18 19 17 16 21 34 38 38 39 39 41 43 45 47 55 54 50 38 32 31 33 33 33 30 28 27 24 22 22
6 1 3 2 4 3 3 3 2 8 10 12 17 30 27 14 13 15 16 17 18 18 21 20 19 21 30 37 40 41 40 42 43 46 47 50 50 33 31 35 34 31 31 27 24 24 22 21 19
3 2 3 3 2 1 4 6 6 3 4 6 5 13 11 13 14 14 16 17 20 20 21 21 20 20 19 27 36 37 39 39 43 42 40 41 33 29 32 34 31 28 28 26 25 19 20 16 15
5 5 4 4 2 5 4 0 14 10 19 15 12 16 16 12 13 17 19 22 24 22 23 23 22 22 18 17 25 31 36 38 38 36 35 33 31 32 32 31 28 26 24 24 21 18 16 15 17
6 7 4 5 3 9 4 7 8 5 7 9 9 12 15 17 17 22 24 29 30 24 20 24 25 26 24 19 20 22 29 38 40 32 30 32 33 29 28 26 24 22 18 19 18 17 15 14 16
3 4 4 3 2 2 5 6 13 15 13 8 14 17 21 20 22 31 29 32 34 30 24 20 25 27 28 25 21 24 27 26 32 32 31 33 32 31 27 25 23 18 17 18 18 17 14 14 16
5 5 1 2 4 5 4 10 11 7 6 8 10 15 23 23 33 40 35 34 37 33 27 22 21 27 29 28 24 26 28 29 30 34 34 34 33 30 26 24 21 19 19 19 17 14 14 14 14
1 2 3 3 4 3 7 9 6 9 10 9 11 22 27 28 41 41 40 36 33 31 23 23 23 26 28 29 26 27 33 31 32 35 38 35 31 28 24 22 22 20 21 19 16 15 15 14 16
5 5 7 3 4 4 5 19 8 7 9 7 16 24 31 35 41 45 38 35 34 22 23 22 23 25 27 28 27 27 31 35 32 32 37 34 31 24 22 20 21 21 19 17 17 16 17 17 15